Wind_Speed
5 1 8 4 2 1 3 6 5 8 7 6 4 3 5 3 5 4 21 18 29 40 39 40 39 38 36 34 33 33 31 30 30 30 28 29 30 28 26 25 24 25 24 25 28 30 29 29 30
8 7 4 0 3 5 5 8 10 13 11 11 6 1 1 5 3 5 17 25 33 41 41 38 39 38 38 35 34 34 32 31 31 31 31 30 28 26 24 26 26 27 28 29 31 32 33 33 34
8 7 3 4 5 13 6 9 16 14 12 5 5 5 6 4 2 15 16 32 35 41 43 40 38 38 39 37 34 34 34 32 31 31 32 30 28 25 26 26 26 29 31 32 34 34 35 34 31
5 5 3 4 16 7 14 10 11 6 16 8 5 5 2 10 4 18 37 38 38 39 40 42 39 37 39 38 36 35 35 32 31 30 31 31 28 27 25 26 27 31 32 34 35 36 34 32 31
3 1 4 6 16 8 9 8 8 9 7 7 5 7 4 4 17 25 35 37 38 39 39 42 40 38 39 38 37 36 35 33 32 30 32 30 29 28 26 26 28 33 34 33 35 33 32 31 33
2 2 5 11 20 11 7 16 20 19 17 17 4 5 5 20 29 28 32 34 35 39 39 41 40 38 38 37 36 36 35 34 34 32 30 29 28 28 27 29 31 35 35 34 34 30 30 34 31
3 2 8 15 14 8 5 6 6 11 12 10 4 6 5 3 25 30 27 37 38 39 41 39 41 40 39 37 36 36 35 35 36 34 32 28 27 28 29 33 36 36 36 35 34 32 31 31 30
3 2 5 5 10 13 8 14 12 7 10 13 1 5 3 3 21 29 27 38 36 38 43 41 42 41 40 38 37 36 36 37 37 35 31 27 26 27 32 37 37 37 35 37 36 34 35 33 32
1 7 9 6 4 5 12 17 16 11 5 10 9 9 16 40 18 15 25 29 35 34 37 42 43 42 40 40 39 38 38 38 37 34 31 28 29 30 37 39 38 37 36 38 38 34 31 32 35
5 8 4 3 10 14 17 19 15 14 21 11 21 28 41 38 33 14 10 17 30 34 33 40 46 42 43 40 40 40 40 38 37 35 33 31 34 36 39 38 37 36 39 39 39 35 34 35 36
8 9 13 10 16 20 20 18 17 17 16 15 19 26 27 30 26 23 17 23 31 40 38 37 44 44 41 37 41 42 42 41 39 37 35 36 37 40 42 40 37 39 42 41 37 36 35 36 35
7 6 7 10 13 14 17 17 20 15 17 20 19 20 18 21 18 19 22 14 25 37 37 41 45 46 40 38 40 38 39 43 42 38 36 40 39 42 37 38 39 42 38 41 29 34 37 37 36
4 7 12 16 14 13 16 15 17 20 15 17 19 20 19 17 17 22 25 32 25 34 33 40 42 45 42 41 38 37 36 43 41 38 39 39 40 40 42 41 42 42 39 34 35 39 39 39 36
5 9 17 15 17 11 13 12 11 13 17 21 22 19 16 12 14 21 24 28 22 35 37 40 39 49 43 41 39 39 42 42 43 40 40 39 39 42 41 42 39 40 33 37 36 38 39 38 37
9 14 15 5 13 18 18 11 11 14 15 19 19 20 19 16 18 15 21 26 31 22 38 39 41 45 45 42 40 39 45 46 39 39 39 40 42 44 41 40 38 38 37 36 37 39 40 39 37
4 3 7 12 14 10 13 17 17 10 9 16 20 24 21 21 19 24 26 28 31 32 33 39 39 46 45 43 42 39 44 46 40 38 41 41 45 46 41 35 40 42 41 41 41 43 41 39 38
3 6 17 14 11 17 12 23 21 14 11 12 16 18 23 22 22 28 26 27 30 34 25 40 39 41 44 44 43 41 47 45 41 43 44 41 47 43 40 39 42 46 45 43 44 43 44 41 37
13 15 11 18 20 15 18 22 23 17 14 13 13 16 20 23 25 29 30 31 31 36 34 35 41 40 46 42 42 42 44 47 38 45 44 47 42 43 37 39 45 48 47 44 45 46 43 42 39
8 12 15 21 19 19 17 24 25 20 17 16 14 11 16 21 25 31 32 31 30 32 32 31 40 42 45 44 40 45 43 45 37 42 47 49 46 43 39 38 43 47 49 47 47 47 45 40 42
9 14 20 21 11 20 24 27 24 19 20 18 18 15 15 18 23 21 30 28 29 29 33 30 37 46 51 50 39 47 46 45 43 47 51 51 48 43 40 41 40 44 46 49 49 49 40 41 40
12 16 14 22 33 20 19 13 6 3 8 13 16 12 12 16 21 21 21 24 27 28 29 28 37 46 42 53 44 44 44 44 38 41 43 47 49 44 40 43 44 45 49 46 47 49 48 37 27
16 10 22 28 19 8 5 5 5 10 11 15 17 15 16 18 19 18 20 24 26 30 27 25 29 39 59 49 45 43 44 41 41 45 44 48 50 48 45 44 47 47 49 48 49 50 44 43 38
17 16 28 26 17 3 4 4 4 7 13 20 21 20 20 18 17 20 21 29 30 30 30 28 24 41 38 56 51 47 47 42 44 42 46 46 45 46 41 42 43 47 50 51 49 48 43 43 38
15 16 24 7 3 3 4 2 3 7 14 19 22 20 21 23 22 20 26 30 26 27 31 31 29 29 32 42 42 53 47 42 43 41 43 41 41 43 43 42 44 47 50 51 49 49 44 44 40
9 15 8 7 5 4 4 10 2 7 16 16 20 25 25 22 20 20 19 14 22 28 29 27 27 25 36 29 50 48 50 46 49 49 46 45 41 41 42 45 46 48 48 49 48 47 43 41 37
5 4 1 6 6 14 20 3 4 12 14 16 22 24 23 23 19 19 18 15 18 31 25 26 25 23 28 37 42 41 49 50 45 48 46 49 47 45 46 43 47 47 44 47 46 45 42 39 36
5 7 8 5 9 7 4 5 4 23 31 30 30 28 27 24 20 18 18 18 18 28 26 25 22 24 29 35 38 36 42 47 44 44 45 44 44 44 44 43 46 47 45 46 45 45 43 38 35
2 4 6 4 5 9 6 7 6 27 32 28 31 29 28 25 20 16 15 14 17 26 24 29 22 27 33 34 37 36 43 39 50 48 49 43 42 43 45 43 48 48 46 46 44 44 42 37 32
3 4 3 3 4 4 6 6 9 24 22 28 29 27 25 22 17 17 15 17 19 22 23 25 23 26 30 33 34 35 36 44 43 39 40 45 41 43 44 44 46 48 47 46 44 42 40 37 34
9 3 3 3 4 4 3 6 13 23 22 25 25 23 24 22 19 15 12 3 14 20 17 22 22 23 27 32 29 40 35 37 39 41 38 40 47 46 43 44 46 45 46 45 44 44 41 39 37
Wind_Direction
305 296 313 333 54 161 224 242 247 277 271 213 248 213 163 200 245 224 152 165 158 157 165 167 164 164 161 159 153 148 145 144 143 141 139 137 133 128 126 126 122 116 116 117 114 110 107 107 105
316 314 220 90 169 232 241 219 245 234 238 266 290 255 42 266 145 130 144 173 161 162 168 169 166 166 165 162 158 151 151 151 149 145 143 140 139 135 131 130 128 122 117 113 113 112 111 108 104
307 298 98 169 209 228 219 200 228 250 255 252 235 210 186 205 160 156 165 164 162 163 167 169 169 167 167 165 160 155 155 155 152 150 147 143 141 136 135 138 133 129 123 118 116 116 108 106 101
313 9 339 222 236 247 231 242 239 272 295 248 213 254 266 195 128 179 158 164 162 163 166 169 170 169 169 166 162 161 158 155 155 154 148 144 140 139 139 142 135 131 126 123 121 115 110 107 102
304 98 243 240 244 247 258 245 261 285 284 278 316 249 219 90 131 147 151 157 160 163 167 170 171 170 169 167 165 163 161 157 158 156 148 143 140 142 142 143 139 131 128 124 123 114 108 105 113
266 170 234 242 248 250 249 248 259 271 268 275 253 245 252 142 142 153 154 169 168 162 170 171 172 172 171 170 169 167 164 160 158 153 148 144 143 143 141 143 140 131 126 125 118 114 113 112 113
225 278 239 265 272 278 289 272 246 263 276 284 240 218 232 249 160 161 162 172 167 165 171 171 175 173 172 170 169 168 166 162 158 152 149 147 144 144 143 143 138 133 128 128 121 120 122 119 113
188 250 241 248 268 285 238 275 302 21 308 333 301 251 204 294 161 162 163 165 161 169 171 172 177 175 176 171 170 169 164 161 157 153 153 148 145 144 144 140 137 132 133 129 125 123 122 120 113
8 248 260 279 295 295 333 332 322 328 5 325 331 6 341 344 337 180 165 152 159 167 172 173 175 175 172 171 170 166 162 159 156 154 154 152 147 146 145 140 139 138 137 128 124 124 123 117 113
182 238 278 319 343 350 343 339 346 341 328 326 337 335 335 344 344 278 186 154 157 164 176 173 174 173 171 166 169 167 162 161 160 157 154 153 151 152 145 141 142 141 134 131 125 123 121 118 117
333 272 331 319 337 343 327 323 328 324 312 326 319 321 321 324 335 339 286 177 167 177 177 177 170 172 168 165 166 166 164 164 162 159 157 155 154 150 143 139 141 136 133 129 127 123 124 123 121
324 313 347 323 332 337 324 321 315 305 305 305 304 298 304 316 312 315 328 276 168 172 179 182 171 170 167 167 165 162 163 164 161 160 162 158 148 144 140 141 144 137 137 133 130 130 129 126 123
291 332 322 317 313 307 305 304 296 292 307 319 323 313 300 296 299 308 312 315 191 177 184 187 172 170 168 167 162 162 164 165 160 162 166 157 152 147 146 147 145 140 137 135 131 132 132 129 128
279 304 306 313 312 312 335 318 337 328 331 322 316 315 319 327 314 319 322 319 310 189 190 192 176 175 169 169 164 163 167 167 163 162 168 157 157 150 150 148 145 143 143 138 135 133 134 132 130
287 296 282 287 342 322 339 306 297 304 312 310 309 312 311 309 307 309 312 306 308 250 203 190 184 175 169 169 167 165 166 168 163 165 172 160 155 154 149 145 147 148 146 140 133 133 130 130 127
299 332 348 314 303 308 324 293 293 287 299 299 300 300 301 301 296 305 306 306 299 309 208 194 188 181 171 170 168 167 166 168 166 167 170 164 162 156 148 147 148 149 147 142 136 136 133 131 129
353 301 306 312 305 298 298 291 295 295 280 282 288 289 291 292 292 294 299 303 304 299 266 208 194 179 170 170 169 168 166 167 166 172 169 162 166 157 152 150 149 152 150 147 142 136 138 131 132
299 313 286 294 305 308 299 286 291 291 283 273 267 275 281 284 281 289 293 295 295 296 307 223 193 182 171 172 170 166 165 167 165 172 166 166 163 160 156 151 151 155 154 147 146 142 137 131 125
280 291 286 290 301 298 294 291 289 290 282 273 256 252 270 276 280 280 282 286 290 292 300 227 196 180 173 172 171 164 168 168 159 169 167 166 165 161 157 154 152 156 157 154 153 148 143 135 134
309 308 296 292 290 301 298 289 291 288 280 275 267 252 254 270 280 273 274 273 277 285 290 250 207 189 181 171 177 167 166 169 162 172 175 172 163 162 158 157 155 157 157 157 155 152 141 139 144
316 300 295 297 310 297 277 288 295 349 31 10 9 354 352 317 273 269 269 264 269 275 286 276 215 196 198 174 168 168 168 167 159 163 163 166 165 162 162 161 160 162 164 159 157 159 155 154 158
315 297 304 305 317 303 38 291 39 342 356 354 347 345 333 324 315 314 302 259 259 270 280 298 246 215 211 163 162 172 170 168 164 162 164 165 168 164 165 163 165 165 166 164 166 169 164 163 163
298 321 308 304 292 91 14 247 333 342 350 344 338 335 326 316 305 297 291 277 246 258 275 281 281 225 222 184 169 173 167 169 160 161 158 164 169 165 163 163 165 168 171 172 172 174 174 173 170
334 327 306 320 66 26 218 32 44 5 340 330 328 325 322 319 311 302 294 294 248 246 262 271 279 246 210 185 181 171 175 165 161 159 159 158 162 163 166 167 169 172 176 180 180 182 181 178 179
352 352 345 1 5 254 316 334 207 6 352 337 329 322 321 318 306 299 298 298 259 259 243 260 269 256 201 204 180 180 166 163 166 163 163 159 160 164 169 169 173 176 182 184 186 186 185 183 181
331 43 335 305 316 304 307 266 208 8 343 336 332 327 320 313 299 289 280 273 263 249 239 254 250 237 201 196 174 180 167 170 164 165 166 167 167 169 170 170 174 183 187 187 189 188 188 186 186
335 2 289 261 260 273 257 325 286 352 353 341 331 326 319 311 305 294 286 271 250 233 232 243 241 207 195 183 176 174 171 169 163 164 167 169 169 166 168 170 175 187 190 189 189 189 189 189 189
81 326 344 346 321 312 298 316 321 350 335 333 328 324 318 316 310 301 287 282 232 215 226 239 238 195 189 185 177 170 165 169 164 163 166 165 168 169 167 167 175 182 188 188 189 190 190 189 186
344 2 302 248 280 308 305 315 5 342 326 326 319 317 319 317 319 315 306 280 193 209 224 239 214 184 178 175 166 162 161 164 164 164 160 159 164 170 169 166 170 177 182 187 188 190 189 187 182
94 337 294 316 317 281 297 273 352 337 329 321 317 322 328 334 326 316 322 9 181 203 218 239 183 171 180 183 174 154 158 158 167 161 164 162 165 171 169 166 168 176 182 188 190 189 188 186 184
Height
788 788 790 791 813 810 805 792 773 770 764 745 740 743 746 746 748 768 735 739 741 748 756 760 764 770 775 780 783 787 793 797 801 805 808 812 814 817 821 823 826 828 830 832 834 836 839 841 842
788 788 789 795 812 814 798 781 777 764 748 739 738 738 739 745 731 734 738 738 739 745 753 761 763 769 775 780 784 787 793 798 802 805 809 812 816 818 822 824 827 829 831 834 837 838 841 844 845
787 788 795 803 804 788 792 768 764 751 742 744 743 733 734 735 726 728 732 735 741 744 751 758 764 768 773 779 784 787 791 798 803 806 810 813 817 820 823 825 829 831 833 836 839 842 844 846 849
789 789 793 800 786 775 766 761 753 751 740 739 738 744 727 719 722 725 729 732 739 746 751 755 762 768 773 777 783 788 791 796 803 808 810 814 817 821 824 826 830 832 835 838 842 845 847 849 851
789 793 803 796 776 767 759 756 755 756 750 743 739 741 731 720 721 725 731 733 736 746 751 754 760 767 773 778 782 787 791 795 802 808 811 815 817 821 824 829 831 834 837 840 843 848 850 852 853
791 792 798 784 769 764 760 755 752 749 745 738 740 738 733 721 722 726 729 735 738 744 750 756 759 766 772 778 783 786 791 795 801 807 812 816 818 821 825 830 833 835 839 843 846 850 853 854 855
794 794 778 773 771 768 761 751 753 750 746 743 732 739 729 723 722 723 727 732 737 742 749 755 759 764 771 776 782 787 790 795 801 807 812 817 820 823 826 830 834 837 840 845 848 851 854 856 859
792 792 777 772 768 767 760 753 746 754 751 737 728 736 735 724 723 722 724 729 738 742 746 752 758 762 769 775 781 786 791 796 801 807 812 816 822 826 828 831 835 839 843 846 848 853 856 858 861
786 787 778 778 773 768 761 764 756 754 759 757 744 745 749 740 727 722 722 727 734 743 746 749 754 761 767 773 780 785 791 796 801 807 812 816 821 828 830 833 837 840 844 848 850 854 857 860 864
789 784 780 773 775 784 783 781 770 764 757 754 750 742 739 741 737 728 721 724 729 736 744 745 749 757 763 771 778 784 790 796 801 806 810 815 821 827 832 836 839 842 846 850 853 856 859 862 867
796 783 790 783 783 785 782 778 778 775 764 767 764 755 748 743 742 737 729 719 721 731 737 743 745 754 761 767 775 781 787 794 799 805 809 814 820 827 832 836 841 845 849 853 855 859 862 865 869
806 792 793 793 791 790 787 782 779 775 774 769 765 760 754 747 744 739 734 730 723 727 733 738 741 749 759 765 771 778 785 790 797 802 808 812 819 825 830 835 841 845 850 853 857 860 865 869 873
802 798 794 791 791 788 783 782 778 771 769 767 761 756 751 747 742 737 736 732 722 725 731 735 739 745 754 760 768 775 783 789 794 801 807 813 817 822 828 835 841 846 851 854 858 862 866 871 875
801 799 793 789 786 784 785 783 781 774 769 764 759 756 752 749 746 740 736 733 730 722 726 734 737 741 749 757 763 770 778 787 793 799 804 811 816 820 827 835 841 847 852 855 858 863 868 873 878
800 801 793 792 791 785 784 782 781 774 770 763 760 754 749 748 743 742 738 735 732 725 723 728 733 738 744 753 760 767 772 783 790 797 803 808 813 820 825 833 840 845 851 854 860 866 870 876 881
803 802 814 794 792 786 791 785 772 771 770 766 760 750 744 741 740 738 737 734 731 726 721 723 729 734 740 747 755 763 770 779 789 795 801 808 813 817 824 830 837 844 850 854 860 866 870 877 882
815 836 811 797 789 786 791 779 763 765 765 763 758 752 739 735 735 733 734 731 728 722 720 720 724 730 735 743 751 758 766 775 784 790 798 807 813 818 823 828 835 841 849 855 860 867 871 877 884
824 819 809 804 783 782 782 773 759 758 758 758 756 750 741 730 724 728 729 727 727 721 715 717 719 723 728 739 747 753 761 771 779 785 793 803 811 817 823 827 832 838 846 854 860 865 873 877 883
820 820 814 793 782 781 778 767 755 750 749 749 747 746 740 729 718 722 723 723 722 718 715 710 713 713 720 729 736 743 752 764 773 782 789 799 807 815 821 826 831 835 841 850 858 864 869 878 882
813 816 806 782 778 777 767 758 747 745 741 739 738 736 734 729 716 717 715 717 714 714 709 706 706 709 708 717 731 735 746 758 765 776 784 792 801 811 818 824 829 835 841 847 854 860 868 876 880
811 812 800 792 762 768 758 763 749 743 741 741 741 737 739 733 719 710 704 709 708 709 705 704 702 700 703 707 720 732 744 753 759 770 781 789 796 806 814 821 827 834 841 846 851 856 861 869 878
811 795 789 779 783 784 758 785 758 753 748 745 745 744 742 736 725 714 704 701 704 699 700 701 699 697 703 673 702 721 730 739 748 759 773 784 793 800 809 817 824 832 838 845 849 855 860 864 870
805 797 780 772 772 800 768 771 777 759 757 753 749 744 740 735 728 715 703 689 695 697 697 697 697 690 685 681 696 715 721 735 746 755 765 778 790 797 807 814 822 829 835 843 846 852 858 864 867
803 799 775 771 786 828 764 772 772 774 771 760 751 746 738 728 717 708 698 684 686 691 692 696 692 685 685 680 689 704 720 727 740 748 760 773 784 794 805 812 819 825 832 840 844 850 856 861 867
813 809 803 833 815 811 761 770 788 777 769 762 757 744 732 724 714 704 694 683 673 681 688 688 684 681 684 687 691 703 711 714 730 741 752 766 778 787 799 806 813 822 829 838 844 850 855 861 866
821 825 832 831 803 786 758 758 767 764 763 759 753 740 730 721 709 699 690 683 675 676 677 677 678 677 679 686 681 700 703 723 730 736 747 758 768 778 791 802 809 818 828 835 842 849 854 859 865
825 833 818 823 814 804 764 766 770 757 751 750 746 736 723 712 699 688 678 672 668 669 670 671 672 675 677 682 689 697 709 718 718 734 749 757 764 774 788 798 805 814 825 833 840 846 851 857 863
828 827 834 843 822 803 762 793 774 766 761 753 744 733 718 701 688 677 669 660 658 661 663 664 667 669 675 683 689 695 702 714 713 726 740 748 762 771 783 793 800 810 820 830 838 844 850 855 861
834 841 839 832 813 809 796 778 776 779 770 763 748 733 715 696 681 669 657 647 647 653 658 659 661 665 671 677 683 694 700 709 718 720 734 738 755 771 780 788 796 806 813 825 835 841 849 853 858
837 847 840 826 822 815 809 794 766 778 774 764 746 730 711 692 682 670 655 639 642 649 654 656 657 662 669 677 683 689 702 705 717 720 732 744 753 769 777 784 791 803 811 820 831 837 845 849 856